TimeEDT,TemperatureF,Dew PointF,Humidity,Sea Level PressureIn,VisibilityMPH,Wind Direction,Wind SpeedMPH,Gust SpeedMPH,PrecipitationIn,Events,Conditions,WindDirDegrees,DateUTC
12:15 AM,62.6,46.4,55,30.03,10.0,East,3.5,-,N/A,,Clear,80,2013-05-19 04:15:00
12:35 AM,60.8,46.4,59,30.03,10.0,East,3.5,-,N/A,,Clear,80,2013-05-19 04:35:00
12:55 AM,59.0,46.4,63,30.03,10.0,East,3.5,-,N/A,,Clear,90,2013-05-19 04:55:00
1:15 AM,59.0,46.4,63,30.03,10.0,ENE,4.6,-,N/A,,Clear,60,2013-05-19 05:15:00
1:35 AM,59.0,46.4,63,30.02,10.0,ENE,4.6,-,N/A,,Clear,70,2013-05-19 05:35:00
1:55 AM,59.0,44.6,59,30.01,10.0,ENE,3.5,-,N/A,,Clear,60,2013-05-19 05:55:00
2:15 AM,59.0,44.6,59,30.00,10.0,ENE,3.5,-,N/A,,Mostly Cloudy,70,2013-05-19 06:15:00
2:35 AM,59.0,44.6,59,30.00,10.0,East,4.6,-,N/A,,Scattered Clouds,80,2013-05-19 06:35:00
2:55 AM,57.2,44.6,63,29.99,10.0,ENE,5.8,-,N/A,,Clear,60,2013-05-19 06:55:00
3:15 AM,57.2,44.6,63,30.00,10.0,East,5.8,-,N/A,,Clear,80,2013-05-19 07:15:00
3:35 AM,55.4,44.6,67,30.00,10.0,East,4.6,-,N/A,,Clear,80,2013-05-19 07:35:00
3:55 AM,57.2,46.4,67,30.00,10.0,East,3.5,-,N/A,,Mostly Cloudy,90,2013-05-19 07:55:00
4:15 AM,55.4,46.4,72,30.01,10.0,NE,3.5,-,N/A,,Scattered Clouds,50,2013-05-19 08:15:00
4:35 AM,53.6,46.4,77,30.01,10.0,ENE,4.6,-,N/A,,Clear,60,2013-05-19 08:35:00
4:55 AM,53.6,46.4,77,30.00,10.0,East,4.6,-,N/A,,Clear,90,2013-05-19 08:55:00
5:15 AM,55.4,46.4,72,30.01,10.0,East,5.8,-,N/A,,Clear,90,2013-05-19 09:15:00
5:35 AM,55.4,46.4,72,30.00,10.0,East,5.8,-,N/A,,Clear,90,2013-05-19 09:35:00
5:55 AM,55.4,46.4,72,30.00,10.0,East,6.9,-,N/A,,Clear,90,2013-05-19 09:55:00
6:15 AM,55.4,46.4,72,30.00,10.0,ENE,4.6,-,N/A,,Clear,70,2013-05-19 10:15:00
6:35 AM,53.6,46.4,77,30.01,10.0,NNE,3.5,-,N/A,,Clear,30,2013-05-19 10:35:00
6:55 AM,53.6,46.4,77,30.01,10.0,ENE,4.6,-,N/A,,Clear,70,2013-05-19 10:55:00
7:15 AM,55.4,48.2,77,30.01,10.0,ENE,3.5,-,N/A,,Clear,70,2013-05-19 11:15:00
7:35 AM,57.2,48.2,72,30.01,10.0,East,4.6,-,N/A,,Clear,80,2013-05-19 11:35:00
7:55 AM,59.0,48.2,67,30.01,10.0,East,4.6,-,N/A,,Clear,90,2013-05-19 11:55:00
8:15 AM,60.8,50.0,68,30.01,10.0,East,3.5,-,N/A,,Clear,80,2013-05-19 12:15:00
8:35 AM,62.6,50.0,63,30.02,10.0,Calm,Calm,-,N/A,,Clear,0,2013-05-19 12:35:00
8:55 AM,62.6,50.0,63,30.02,10.0,East,3.5,-,N/A,,Clear,90,2013-05-19 12:55:00
9:15 AM,64.4,51.8,64,30.03,10.0,Calm,Calm,-,N/A,,Clear,0,2013-05-19 13:15:00
9:35 AM,68.0,51.8,56,30.03,10.0,Calm,Calm,-,N/A,,Clear,0,2013-05-19 13:35:00
9:55 AM,68.0,53.6,60,30.02,10.0,Calm,Calm,-,N/A,,Clear,0,2013-05-19 13:55:00
10:15 AM,69.8,55.4,60,30.02,10.0,Calm,Calm,-,N/A,,Clear,0,2013-05-19 14:15:00
10:35 AM,71.6,57.2,60,30.01,10.0,Calm,Calm,-,N/A,,Clear,0,2013-05-19 14:35:00
10:55 AM,73.4,59.0,61,30.00,10.0,Calm,Calm,-,N/A,,Clear,0,2013-05-19 14:55:00
11:15 AM,75.2,59.0,57,30.00,10.0,Calm,Calm,-,N/A,,Clear,0,2013-05-19 15:15:00
11:35 AM,77.0,59.0,54,30.00,10.0,SE,4.6,-,N/A,,Clear,130,2013-05-19 15:35:00
11:55 AM,78.8,60.8,54,30.00,10.0,SSW,3.5,-,N/A,,Clear,200,2013-05-19 15:55:00
12:15 PM,78.8,60.8,54,30.00,10.0,SE,4.6,-,N/A,,Clear,130,2013-05-19 16:15:00
12:35 PM,80.6,60.8,51,30.01,10.0,Calm,Calm,-,N/A,,Scattered Clouds,0,2013-05-19 16:35:00
12:55 PM,80.6,60.8,51,30.00,10.0,SSW,3.5,-,N/A,,Scattered Clouds,200,2013-05-19 16:55:00
1:15 PM,80.6,59.0,48,30.00,10.0,South,3.5,-,N/A,,Scattered Clouds,180,2013-05-19 17:15:00
1:35 PM,80.6,59.0,48,29.99,10.0,Calm,Calm,-,N/A,,Clear,0,2013-05-19 17:35:00
1:55 PM,82.4,59.0,45,29.98,10.0,SSW,5.8,-,N/A,,Scattered Clouds,200,2013-05-19 17:55:00
2:15 PM,82.4,59.0,45,29.96,10.0,SE,6.9,-,N/A,,Clear,140,2013-05-19 18:15:00
2:35 PM,82.4,57.2,42,29.96,10.0,ESE,4.6,-,N/A,,Clear,110,2013-05-19 18:35:00
2:55 PM,84.2,57.2,40,29.95,10.0,SW,3.5,-,N/A,,Scattered Clouds,230,2013-05-19 18:55:00
3:15 PM,82.4,55.4,39,29.94,10.0,SSW,3.5,-,N/A,,Scattered Clouds,210,2013-05-19 19:15:00
3:35 PM,86.0,57.2,37,29.92,10.0,East,6.9,-,N/A,,Scattered Clouds,90,2013-05-19 19:35:00
3:55 PM,84.2,57.2,40,29.91,10.0,ESE,3.5,-,N/A,,Scattered Clouds,110,2013-05-19 19:55:00
4:15 PM,86.0,57.2,37,29.90,10.0,ESE,5.8,-,N/A,,Scattered Clouds,110,2013-05-19 20:15:00
4:35 PM,86.0,55.4,35,29.90,10.0,SE,3.5,-,N/A,,Clear,140,2013-05-19 20:35:00
5:15 PM,86.0,55.4,35,29.91,10.0,SSW,3.5,-,N/A,,Clear,210,2013-05-19 21:15:00
5:35 PM,86.0,55.4,35,29.91,10.0,ESE,3.5,-,N/A,,Clear,120,2013-05-19 21:35:00
5:55 PM,86.0,55.4,35,29.90,10.0,ESE,3.5,-,N/A,,Scattered Clouds,120,2013-05-19 21:55:00
6:15 PM,86.0,55.4,35,29.89,10.0,ESE,6.9,-,N/A,,Clear,110,2013-05-19 22:15:00
6:35 PM,86.0,55.4,35,29.90,10.0,SSE,4.6,-,N/A,,Scattered Clouds,160,2013-05-19 22:35:00
6:55 PM,84.2,55.4,37,29.90,10.0,South,4.6,-,N/A,,Scattered Clouds,170,2013-05-19 22:55:00
7:15 PM,84.2,55.4,37,29.88,10.0,SE,4.6,-,N/A,,Clear,130,2013-05-19 23:15:00
7:35 PM,84.2,55.4,37,29.88,10.0,South,3.5,-,N/A,,Clear,180,2013-05-19 23:35:00
7:55 PM,82.4,55.4,39,29.89,10.0,Calm,Calm,-,N/A,,Clear,0,2013-05-19 23:55:00
8:15 PM,80.6,55.4,42,29.88,10.0,ESE,3.5,-,N/A,,Clear,120,2013-05-20 00:15:00
8:35 PM,80.6,57.2,45,29.88,10.0,ESE,3.5,-,N/A,,Clear,120,2013-05-20 00:35:00
8:55 PM,78.8,59.0,51,29.88,10.0,Calm,Calm,-,N/A,,Clear,0,2013-05-20 00:55:00
9:15 PM,78.8,59.0,51,29.88,10.0,Calm,Calm,-,N/A,,Clear,0,2013-05-20 01:15:00
9:35 PM,77.0,59.0,54,29.89,10.0,ESE,3.5,-,N/A,,Clear,110,2013-05-20 01:35:00
9:55 PM,77.0,59.0,54,29.91,10.0,Calm,Calm,-,N/A,,Clear,0,2013-05-20 01:55:00
10:15 PM,75.2,59.0,57,29.91,10.0,Calm,Calm,-,N/A,,Clear,0,2013-05-20 02:15:00
10:35 PM,73.4,59.0,61,29.91,10.0,Calm,Calm,-,N/A,,Clear,0,2013-05-20 02:35:00
10:55 PM,75.2,59.0,57,29.92,10.0,Calm,Calm,-,N/A,,Clear,0,2013-05-20 02:55:00
11:15 PM,73.4,59.0,61,29.92,10.0,Calm,Calm,-,N/A,,Clear,0,2013-05-20 03:15:00
11:35 PM,71.6,59.0,64,29.92,10.0,Calm,Calm,-,N/A,,Clear,0,2013-05-20 03:35:00
11:55 PM,71.6,59.0,64,29.92,10.0,Calm,Calm,-,N/A,,Clear,0,2013-05-20 03:55:00